Weather History for Bentonville, AR

Change the Weather History Date:

Friday, November 30, 2012

  Actual Average Record
Temperature  
Mean Temperature 55 °F -  
Max Temperature 66 °F 52 °F 69 °F (1970)
Min Temperature 44 °F 29 °F 6 °F (1976)
Degree Days  
Heating Degree Days 10    
Growing Degree Days 5 (Base 50)    
Moisture  
Dew Point 42 °F    
Average Humidity 63    
Maximum Humidity 88    
Minimum Humidity 46    
Precipitation  
Precipitation 0.00 in - - ()
Sea Level Pressure  
Sea Level Pressure 30.09 in    
Wind  
Wind Speed 7 mph (South)    
Max Wind Speed 13 mph    
Max Gust Speed 16 mph    
Visibility 10 miles    
Events      
Averages and records for this station are not official NWS values.
T = Trace of Precipitation, MM = Missing Value Source: NWS Daily Summary

Daily Weather History Graph

Daily Weather History Graph

Search for Another Location

Airport:

Trip Planner

Search our weather history database for the weather conditions in past years. The results will help you decide how hot, cold, wet, or windy it might be!

Date:

Astronomy

Nov. 30, 2012 Rise Set
Actual Time 7:09 AM CST 5:02 PM CST
Civil Twilight 6:41 AM CST 5:30 PM CST
Nautical Twilight 6:09 AM CST 6:02 PM CST
Astronomical Twilight 5:38 AM CST 6:33 PM CST
Moon 6:57 PM CST (11/30) 8:42 AM CST (11/30)
Length of Visible Light 10h 49m
Length of Day
9h 52m
Waning Gibbous, 96% of the Moon is Illuminated
Nov 30
Waning Gibbous
Dec 6
Last Quarter
Dec 13
New
Dec 19
First Quarter
Dec 28
Full

Hourly Weather History & Observations

Time (CST) Temp. Windchill Dew Point Humidity Pressure Visibility Wind Dir Wind Speed Gust Speed Precip Events Conditions
12:15 AM 46.4 °F 44.3 °F 26.6 °F 46% 30.13 in 10.0 mi South 4.6 mph - N/A   Clear
12:35 AM 46.4 °F 43.5 °F 28.4 °F 50% 30.13 in 10.0 mi South 5.8 mph - N/A   Clear
12:55 AM 46.4 °F 42.9 °F 28.4 °F 50% 30.13 in 10.0 mi South 6.9 mph - N/A   Clear
1:15 AM 46.4 °F 42.9 °F 28.4 °F 50% 30.12 in 10.0 mi South 6.9 mph - N/A   Clear
1:35 AM 44.6 °F 40.7 °F 28.4 °F 53% 30.12 in 10.0 mi SSE 6.9 mph - N/A   Clear
2:15 AM 44.6 °F 41.4 °F 30.2 °F 57% 30.12 in 10.0 mi SSE 5.8 mph - N/A   Clear
2:35 AM 46.4 °F 43.5 °F 30.2 °F 53% 30.12 in 10.0 mi SSE 5.8 mph - N/A   Clear
2:56 AM 46.4 °F 43.5 °F 30.2 °F 53% 30.11 in 10.0 mi South 5.8 mph - N/A   Clear
3:15 AM 44.6 °F 41.4 °F 30.2 °F 57% 30.11 in 10.0 mi South 5.8 mph - N/A   Clear
3:35 AM 46.4 °F 43.5 °F 30.2 °F 53% 30.11 in 10.0 mi South 5.8 mph - N/A   Clear
3:56 AM 44.6 °F 41.4 °F 30.2 °F 57% 30.11 in 10.0 mi SSE 5.8 mph - N/A   Clear
4:15 AM 44.6 °F 40.7 °F 30.2 °F 57% 30.10 in 10.0 mi South 6.9 mph - N/A   Clear
4:55 AM 44.6 °F 41.4 °F 32.0 °F 61% 30.10 in 10.0 mi South 5.8 mph - N/A   Clear
5:15 AM 44.6 °F 41.4 °F 33.8 °F 66% 30.10 in 10.0 mi South 5.8 mph - N/A   Clear
5:35 AM 46.4 °F 43.5 °F 33.8 °F 62% 30.10 in 10.0 mi South 5.8 mph - N/A   Clear
5:55 AM 46.4 °F 43.5 °F 33.8 °F 62% 30.10 in 10.0 mi South 5.8 mph - N/A   Clear
6:35 AM 48.2 °F - 35.6 °F 62% 30.11 in 10.0 mi South 4.6 mph - N/A   Clear
6:55 AM 48.2 °F - 35.6 °F 62% 30.11 in 10.0 mi South 5.8 mph - N/A   Clear
7:15 AM 48.2 °F - 35.6 °F 62% 30.12 in 10.0 mi South 5.8 mph - N/A   Clear
7:35 AM 48.2 °F - 37.4 °F 66% 30.12 in 10.0 mi South 5.8 mph - N/A   Clear
7:55 AM 50.0 °F - 37.4 °F 62% 30.12 in 10.0 mi South 5.8 mph - N/A   Clear
8:15 AM 51.8 °F - 37.4 °F 58% 30.13 in 10.0 mi South 6.9 mph - N/A   Clear
8:55 AM 55.4 °F - 39.2 °F 54% 30.13 in 10.0 mi SSW 5.8 mph - N/A   Clear
9:15 AM 57.2 °F - 42.8 °F 59% 30.14 in 10.0 mi SSW 9.2 mph - N/A   Clear
9:35 AM 57.2 °F - 42.8 °F 59% 30.14 in 10.0 mi SSW 8.1 mph - N/A   Clear
9:56 AM 59.0 °F - 44.6 °F 59% 30.14 in 10.0 mi SSW 10.4 mph - N/A   Clear
10:15 AM 60.8 °F - 46.4 °F 59% 30.14 in 10.0 mi SSW 11.5 mph - N/A   Clear
10:35 AM 62.6 °F - 46.4 °F 55% 30.14 in 10.0 mi SSW 10.4 mph 16.1 mph N/A   Clear
10:55 AM 62.6 °F - 48.2 °F 59% 30.13 in 10.0 mi SSW 9.2 mph - N/A   Clear
11:15 AM 62.6 °F - 48.2 °F 59% 30.13 in 10.0 mi SSW 11.5 mph - N/A   Clear
11:35 AM 64.4 °F - 48.2 °F 56% 30.11 in 10.0 mi SSW 9.2 mph - N/A   Clear
11:55 AM 64.4 °F - 48.2 °F 56% 30.10 in 10.0 mi SW 11.5 mph - N/A   Clear
12:16 PM 64.4 °F - 48.2 °F 56% 30.09 in 10.0 mi South 11.5 mph 16.1 mph N/A   Clear
12:35 PM 66.2 °F - 48.2 °F 52% 30.08 in 10.0 mi South 9.2 mph - N/A   Clear
12:55 PM 66.2 °F - 50.0 °F 56% 30.08 in 10.0 mi SSW 11.5 mph - N/A   Clear
1:15 PM 66.2 °F - 50.0 °F 56% 30.07 in 10.0 mi SSW 8.1 mph - N/A   Clear
1:35 PM 66.2 °F - 50.0 °F 56% 30.07 in 10.0 mi South 9.2 mph - N/A   Clear
1:55 PM 66.2 °F - 50.0 °F 56% 30.07 in 10.0 mi South 8.1 mph - N/A   Clear
2:15 PM 66.2 °F - 48.2 °F 52% 30.06 in 10.0 mi SSW 12.7 mph - N/A   Clear
2:55 PM 66.2 °F - 50.0 °F 56% 30.05 in 10.0 mi SSW 8.1 mph - N/A   Clear
3:15 PM 66.2 °F - 48.2 °F 52% 30.05 in 10.0 mi South 5.8 mph - N/A   Clear
3:35 PM 66.2 °F - 48.2 °F 52% 30.05 in 10.0 mi South 5.8 mph - N/A   Clear
4:15 PM 64.4 °F - 48.2 °F 56% 30.06 in 10.0 mi South 6.9 mph - N/A   Clear
4:35 PM 62.6 °F - 48.2 °F 59% 30.06 in 10.0 mi South 5.8 mph - N/A   Clear
5:15 PM 57.2 °F - 48.2 °F 72% 30.05 in 10.0 mi SSE 4.6 mph - N/A   Clear
5:35 PM 55.4 °F - 46.4 °F 72% 30.05 in 10.0 mi SSE 5.8 mph - N/A   Clear
6:15 PM 55.4 °F - 48.2 °F 77% 30.05 in 10.0 mi SE 6.9 mph - N/A   Clear
6:35 PM 57.2 °F - 48.2 °F 72% 30.05 in 10.0 mi SSE 6.9 mph - N/A   Clear
7:15 PM 53.6 °F - 46.4 °F 77% 30.05 in 10.0 mi SSE 5.8 mph - N/A   Clear
7:35 PM 53.6 °F - 46.4 °F 77% 30.05 in 10.0 mi SSE 5.8 mph - N/A   Clear
7:55 PM 53.6 °F - 48.2 °F 82% 30.05 in 10.0 mi SSE 6.9 mph - N/A   Clear
8:15 PM 55.4 °F - 48.2 °F 77% 30.05 in 10.0 mi SSE 8.1 mph - N/A   Clear
8:35 PM 55.4 °F - 48.2 °F 77% 30.05 in 10.0 mi South 10.4 mph - N/A   Clear
8:55 PM 57.2 °F - 50.0 °F 77% 30.05 in 10.0 mi South 10.4 mph - N/A   Clear
9:35 PM 55.4 °F - 50.0 °F 82% 30.06 in 10.0 mi South 8.1 mph - N/A   Clear
10:15 PM 53.6 °F - 50.0 °F 88% 30.06 in 7.0 mi South 5.8 mph - N/A   Clear
10:35 PM 53.6 °F - 50.0 °F 88% 30.05 in 7.0 mi South 4.6 mph - N/A   Clear
10:55 PM 53.6 °F - 48.2 °F 82% 30.06 in 6.0 mi South 4.6 mph - N/A   Clear
11:15 PM 55.4 °F - 50.0 °F 82% 30.07 in 7.0 mi South 4.6 mph - N/A   Clear
11:55 PM 50.0 °F - 46.4 °F 87% 30.07 in 4.0 mi SSW 3.5 mph - N/A   Clear